Location: Melbourne
(37.8170°S, 144.9670°E)
Time: 14:15:47
(UTC+11:00)

Transit 2A - All Passes

Search period start: 01 November 2014 00:00
Search period end: 11 November 2014 00:00
Orbit: 598 x 965 km, 66.7° (Epoch: 31 October)

Date Brightness Start Highest point End Pass type
(mag) Time Alt. Az. Time Alt. Az. Time Alt. Az.
01 Nov - 01:09:40 10° WSW 01:12:11 14° WNW 01:14:35 10° NW visible
01 Nov - 14:00:52 10° NNW 14:07:13 73° ENE 14:13:17 10° SSE daylight
01 Nov - 15:46:23 10° W 15:51:01 21° SW 15:55:28 10° S daylight
01 Nov - 22:51:19 10° SSW 22:55:58 36° SE 23:00:12 10° ENE visible
02 Nov - 00:35:08 10° SW 00:38:52 22° WNW 00:42:22 10° NNW visible
02 Nov - 13:27:35 10° N 13:33:42 52° ENE 13:39:36 10° SE daylight
02 Nov - 15:11:53 10° WNW 15:17:13 28° SW 15:22:20 10° S daylight
02 Nov - 22:18:04 10° S 22:22:14 25° SE 22:26:04 10° ENE visible
03 Nov - 00:01:05 10° SW 00:05:30 34° WNW 00:09:35 10° N visible
03 Nov - 12:54:32 10° N 13:00:15 36° ENE 13:05:46 10° SE daylight
03 Nov - 14:37:39 10° WNW 14:43:29 38° SW 14:49:03 10° SSE daylight
03 Nov - 21:45:00 10° S 21:48:25 18° SE 21:51:37 10° E visible
03 Nov - 23:27:16 10° SW 23:32:05 54° WNW 23:36:28 10° N visible
04 Nov - 12:21:47 10° NNE 12:26:50 26° ENE 12:31:44 10° SE daylight
04 Nov - 14:03:39 10° NW 14:09:49 52° WSW 14:15:41 10° SSE daylight
04 Nov - 15:53:35 10° SW 15:54:22 10° SW 15:55:09 10° SSW daylight
04 Nov - 21:12:17 10° SSE 21:14:31 13° SE 21:16:41 10° ESE visible
04 Nov - 22:53:37 10° SSW 22:58:35 86° WNW 23:03:05 10° NNE visible
05 Nov - 11:49:29 10° NE 11:53:27 18° ENE 11:57:21 10° ESE daylight
05 Nov - 13:29:52 10° NW 13:36:12 73° WSW 13:42:14 10° SSE daylight
05 Nov - 15:17:18 10° WSW 15:20:24 14° SW 15:23:26 10° SSW daylight
05 Nov - 22:20:05 10° SSW 22:25:01 62° ESE 22:29:29 10° NE visible
06 Nov - 00:05:47 10° W 00:07:26 12° WNW 00:09:01 10° WNW visible
06 Nov - 11:18:13 10° ENE 11:20:08 11° ENE 11:22:02 10° E daylight
06 Nov - 12:56:16 10° NNW 13:02:38 82° ENE 13:08:41 10° SSE daylight
06 Nov - 14:42:16 10° W 14:46:31 19° SW 14:50:37 10° S daylight
06 Nov - 21:46:39 10° SSW 21:51:22 41° SE 21:55:40 10° NE visible
06 Nov - 23:30:50 10° WSW 23:34:08 19° WNW 23:37:16 10° NNW visible
07 Nov - 12:22:54 10° N 12:29:06 58° ENE 12:35:02 10° SE daylight
07 Nov - 14:07:39 10° WNW 14:12:42 25° SW 14:17:33 10° S daylight
07 Nov - 21:13:22 10° S 21:17:39 28° SE 21:21:36 10° ENE visible
07 Nov - 22:56:38 10° SW 23:00:47 29° WNW 23:04:38 10° NNW visible
08 Nov - 11:49:45 10° N 11:55:37 41° ENE 12:01:15 10° SE daylight
08 Nov - 13:33:19 10° WNW 13:38:57 34° SW 13:44:19 10° S daylight
08 Nov - 20:40:13 10° S 20:43:51 20° SE 20:47:16 10° E visible
08 Nov - 22:22:44 10° SW 22:27:23 46° WNW 22:31:38 10° N visible
09 Nov - 11:16:53 10° NNE 11:22:11 29° ENE 11:27:18 10° SE daylight
09 Nov - 12:59:14 10° NW 13:05:16 46° WSW 13:10:59 10° SSE daylight
09 Nov - 20:07:21 10° S 20:10:00 14° SE 20:12:31 10° ESE daylight
09 Nov - 21:49:01 10° SSW 21:53:54 73° WNW 21:58:20 10° NNE visible
10 Nov - 10:44:24 10° NNE 10:48:47 20° ENE 10:53:04 10° ESE daylight
10 Nov - 12:25:22 10° NW 12:31:38 64° WSW 12:37:33 10° SSE daylight
10 Nov - 14:13:31 10° WSW 14:15:56 12° SW 14:18:18 10° SSW daylight
10 Nov - 21:15:27 10° SSW 21:20:21 72° ESE 21:24:49 10° NE visible
